x

Annapolis (44063) Weather Station

7:50pm - Sun 4th Dec 2016 All times are EST. -5 hours from GMT.

  • Wind
    11mph, 13mph gusts
  • Air Temp 45°f
  • Sea Pressure 1021.4mb
  • Annapolis
  • Annapolis

More Historic Weather Station data

Upgrade to MSW Pro to gain access to the past 30 days of data for over 8000 Wavebouys and Weather Stations around the globe.

Join Pro

Comparision Forecast

View Surf forecast
   
Sun 12/04 7:50pm  -   -  11 13 mph 1021.4mb - 45f
7:40pm  -   -  11 13 mph 1021.5mb - 45f
7:30pm  -   -  11 13 mph 1021.4mb - 45f
7:20pm  -   -  11 13 mph 1021.4mb - 45f
7:10pm  -   -  11 13 mph 1021.5mb - 45f
7:00pm  -   -  9 11 mph 1022mb 49f 45f
6:50pm  -   -  11 13 mph 1021.8mb - 45f
6:40pm  -   -  11 13 mph 1021.9mb - 45f
6:30pm  -   -  11 13 mph 1022mb - 45f
6:20pm  -   -  11
mph
1022.1mb - 45f
6:10pm  -   -  9 11 mph 1022.3mb - 45f
6:00pm  -   -  9 11 mph 1022.4mb 49f 45f
5:50pm  -   -  9 11 mph 1022.4mb - 45f
5:40pm  -   -  9 11 mph 1022.5mb - 45f
5:30pm  -   -  9 11 mph 1022.5mb - 45f
5:20pm  -   -  9 11 mph 1022.5mb - 45f
5:10pm  -   -  9 11 mph 1022.6mb - 45f
5:00pm  -   -  9 11 mph 1022.7mb 49f 45f
4:50pm  -   -  9 11 mph 1022.8mb - 45f
4:40pm  -   -  9
mph
1022.8mb - 45f
4:30pm  -   -  9 11 mph 1023mb - 45f
4:20pm  -   -  9
mph
1022.8mb - 45f
4:10pm  -   -  4 9 mph 1023mb - 45f
4:00pm 0.3ft  -  4 7 mph 1023mb 49f 45f
3:50pm  -   -  7
mph
1023mb - 45f
3:40pm  -   -  4 7 mph 1023.1mb - 45f
3:30pm  -   -  4
mph
1023.3mb - 45f
3:20pm  -   -  4 7 mph 1023.2mb - 45f
3:10pm  -   -  4 7 mph 1023mb - 45f
3:00pm 0.3ft  -  7
mph
1023mb 49f 45f
2:50pm  -   -  7
mph
1023.1mb - 45f
2:40pm  -   -  7
mph
1022.9mb - 44f
2:30pm  -   -  7
mph
1023mb - 44f
2:20pm  -   -  4 7 mph 1023.2mb - 45f
2:10pm  -   -  4 7 mph 1023.4mb - 45f
2:00pm 0.3ft  -  4 7 mph 1023.6mb 48f 45f
1:50pm  -   -  4 7 mph 1023.6mb - 45f
1:40pm  -   -  4 7 mph 1023.7mb - 45f
1:30pm  -   -  4 7 mph 1023.6mb - 45f
1:20pm  -   -  2 4 mph 1023.8mb - 45f
1:10pm  -   -  4 7 mph 1023.9mb - 46f
1:00pm 0.3ft  -  7 9 mph 1023.9mb 49f 46f
12:50pm  -   -  7 9 mph 1023.9mb - 46f
12:40pm  -   -  4 9 mph 1024mb - 46f
12:30pm  -   -  2 4 mph 1024.1mb - 45f
12:20pm  -   -  2 4 mph 1024.1mb - 45f
12:10pm  -   -  2 7 mph 1024.1mb - 46f
12:00pm 0.3ft  -  2 4 mph 1024.2mb 50f 45f
11:50am  -   -  4 7 mph 1024.3mb - 45f
11:40am  -   -  4 7 mph 1024.3mb - 45f
11:30am  -   -  4 9 mph 1024.6mb - 45f
11:20am  -   -  7 9 mph 1024.5mb - 45f
11:10am  -   -  7 9 mph 1024.6mb - 45f
11:00am 0.3ft  -  7 9 mph 1025.1mb 50f 45f
10:50am  -   -  7 11 mph 1025.4mb - 45f
10:40am  -   -  7 9 mph 1025.5mb - 44f
10:30am  -   -  4 11 mph 1025.6mb - 44f
10:20am  -   -  7
mph
1025.7mb - 43f
10:10am  -   -  7 9 mph 1025.7mb - 43f
10:00am  -   -  7 9 mph 1025.6mb 49f 42f
9:50am  -   -  9 11 mph 1025.7mb - 42f
9:40am  -   -  9 11 mph 1025.6mb - 42f
9:30am  -   -  9 11 mph 1025.5mb - 41f
9:20am  -   -  9 11 mph 1025.5mb - 41f
9:10am  -   -  9 13 mph 1025.5mb - 41f
9:00am 0.3ft  -  9 11 mph 1025.4mb 49f 41f
8:50am  -   -  9 11 mph 1025.4mb - 41f
8:40am  -   -  11 13 mph 1025.5mb - 41f
8:30am  -   -  11 13 mph 1025.4mb - 41f
8:20am  -   -  9 11 mph 1025.1mb - 41f
8:10am  -   -  11 13 mph 1025.1mb - 40f
8:00am  -   -  11 13 mph 1025.2mb 49f 40f
7:50am  -   -  11 16 mph 1025.2mb - 40f
7:40am  -   -  11 13 mph 1025.2mb - 40f
7:30am  -   -  11 13 mph 1025mb - 40f
7:20am  -   -  11 13 mph 1024.9mb - 40f
7:10am  -   -  11 13 mph 1024.9mb - 40f
7:00am 0.3ft  -  11 13 mph 1024.9mb 49f 40f
6:50am  -   -  11 13 mph 1024.9mb - 40f
6:40am  -   -  11 13 mph 1025mb - 40f
6:30am  -   -  13 16 mph 1025.1mb - 40f
6:20am  -   -  13 16 mph 1025mb - 40f
6:10am  -   -  16 18 mph 1024.8mb - 40f
6:00am  -   -  16 18 mph 1024.7mb 49f 40f
5:50am  -   -  16 18 mph 1024.8mb - 40f
5:40am  -   -  13 18 mph 1025mb - 40f
5:30am  -   -  13 18 mph 1024.7mb - 40f
5:20am  -   -  16
mph
1024.6mb - 40f
5:10am  -   -  16 18 mph 1024.5mb - 40f
5:00am  -   -  13 18 mph 1024.4mb 49f 40f
4:50am  -   -  13 18 mph 1024.3mb - 40f
4:40am  -   -  13 16 mph 1024.4mb - 40f
4:30am  -   -  13 16 mph 1024.5mb - 40f
4:20am  -   -  13 18 mph 1024.3mb - 40f
4:10am  -   -  13 16 mph 1024.4mb - 41f
4:00am  -   -  13 18 mph 1024.3mb 49f 41f
3:50am  -   -  13 18 mph 1024.3mb - 41f
3:40am  -   -  13 16 mph 1024.5mb - 41f
3:30am  -   -  13 16 mph 1024.6mb - 41f
3:20am  -   -  13 16 mph 1024.8mb - 41f
3:10am  -   -  11 13 mph 1024.9mb - 41f
3:00am  -   -  11 13 mph 1025mb 49f 41f
2:50am  -   -  13 16 mph 1025mb - 42f
2:40am  -   -  13 18 mph 1025mb - 42f
2:30am  -   -  13 18 mph 1025.1mb - 42f
2:20am  -   -  13 18 mph 1024.8mb - 42f
2:10am  -   -  11 16 mph 1024.7mb - 42f
2:00am  -   -  11 13 mph 1024.8mb 49f 42f
1:50am  -   -  11 13 mph 1024.9mb - 42f
1:40am  -   -  11 13 mph 1024.8mb - 42f
1:30am  -   -  11 13 mph 1024.6mb - 42f
1:20am  -   -  11 16 mph 1024.5mb - 43f
1:10am  -   -  11 16 mph 1024.5mb - 43f
1:00am  -   -  11 16 mph 1024.6mb 49f 43f
12:50am  -   -  13 18 mph 1024.7mb - 43f
12:40am  -   -  13 16 mph 1024.7mb - 43f
12:30am  -   -  13 18 mph 1024.7mb - 43f
12:20am  -   -  13 16 mph 1024.8mb - 43f
12:10am  -   -  13 18 mph 1024.8mb - 43f
12:00am  -   -  13 16 mph 1024.8mb 49f 43f
Sat 12/03 11:50pm  -   -  13 18 mph 1025mb - 43f
11:40pm  -   -  13 18 mph 1025mb - 43f
11:30pm  -   -  13 18 mph 1025mb - 43f
11:20pm  -   -  13 16 mph 1024.9mb - 43f
11:10pm  -   -  11 16 mph 1024.8mb - 43f
11:00pm  -   -  13 16 mph 1024.8mb 50f 43f
10:50pm  -   -  13 16 mph 1024.7mb - 43f
10:40pm  -   -  13 18 mph 1024.5mb - 44f
10:30pm  -   -  16 20 mph 1024.4mb - 44f
10:20pm  -   -  16 18 mph 1024.3mb - 43f
10:10pm  -   -  16 18 mph 1024.2mb - 44f
10:00pm  -   -  16 20 mph 1024.2mb 50f 43f
9:50pm  -   -  16 20 mph 1024.2mb - 44f
9:40pm  -   -  16 18 mph 1024.1mb - 43f
9:30pm  -   -  16 18 mph 1024mb - 43f
9:20pm  -   -  13 18 mph 1023.9mb - 43f
9:10pm  -   -  13 16 mph 1023.8mb - 43f
9:00pm  -   -  13 16 mph 1023.7mb 50f 43f
8:50pm  -   -  13 16 mph 1023.6mb - 43f
8:40pm  -   -  13 18 mph 1023.7mb - 43f
8:30pm  -   -  13 16 mph 1023.6mb - 44f
8:20pm  -   -  13 16 mph 1023.6mb - 44f
8:10pm  -   -  13 18 mph 1023.6mb - 44f
8:00pm  -   -  13 16 mph 1023.7mb 50f 44f
7:50pm  -   -  13 18 mph 1023.7mb - 44f
7:40pm  -   -  13 16 mph 1023.6mb - 44f
7:30pm  -   -  11 16 mph 1023.6mb - 44f
7:20pm  -   -  11 13 mph 1023.5mb - 44f
7:10pm  -   -  13 18 mph 1023.5mb - 45f
7:00pm  -   -  16 20 mph 1023.4mb 50f 45f
6:50pm  -   -  16 20 mph 1023.2mb - 45f
6:40pm  -   -  13 16 mph 1023.1mb - 45f
6:30pm  -   -  13 18 mph 1022.7mb - 45f
6:20pm  -   -  13 18 mph 1022.7mb - 45f
6:10pm  -   -  11 16 mph 1022.8mb - 46f
6:00pm  -   -  13 16 mph 1022.8mb 50f 46f
5:50pm  -   -  13 18 mph 1022.7mb - 46f
5:40pm  -   -  16 20 mph 1022.5mb - 46f
5:30pm  -   -  16 18 mph 1022.5mb - 46f
5:20pm  -   -  13 18 mph 1022.3mb - 47f
5:10pm  -   -  16 20 mph 1022.2mb - 47f
5:00pm 1ft 2s 16 20 mph 1022.1mb 50f 47f
4:50pm  -   -  16 22 mph 1022mb - 47f
4:40pm  -   -  18 25 mph 1022.1mb - 47f
4:30pm  -   -  20 25 mph 1022.2mb - 47f
4:20pm  -   -  20 25 mph 1022.5mb - 47f
4:10pm  -   -  18 27 mph 1022.5mb - 48f
4:00pm 1ft 2s 20 27 mph 1022.5mb 49f 48f
3:50pm  -   -  20 25 mph 1022.3mb - 48f
3:40pm  -   -  20 27 mph 1022.2mb - 48f
3:30pm  -   -  18 25 mph 1022.2mb - 48f
3:20pm  -   -  18 25 mph 1021.9mb - 49f
3:10pm  -   -  20 25 mph 1021.5mb - 49f
3:00pm 1ft 2s 20 25 mph 1021.2mb 49f 49f
2:50pm  -   -  20 25 mph 1021mb - 49f
2:40pm  -   -  18 20 mph 1020.6mb - 49f
2:30pm  -   -  18 27 mph 1020.3mb - 49f
2:20pm  -   -  22 27 mph 1020.1mb - 49f
2:10pm  -   -  18 27 mph 1020.1mb - 49f
2:00pm  -   -  18 25 mph 1020.2mb 49f 49f
1:50pm  -   -  20 27 mph 1020.2mb - 49f
1:40pm  -   -  20 27 mph 1020.4mb - 49f
1:30pm  -   -  20 25 mph 1020.4mb - 49f
1:20pm  -   -  20 29 mph 1020.4mb - 49f
1:10pm  -   -  20 29 mph 1020.4mb - 48f
1:00pm 1ft 2s 20 27 mph 1020.6mb 50f 49f
12:50pm  -   -  20 27 mph 1020.9mb - 49f
12:40pm  -   -  22 27 mph 1020.9mb - 48f
12:30pm  -   -  20 27 mph 1020.9mb - 49f
12:20pm  -   -  22 29 mph 1021mb - 48f
12:10pm  -   -  22 29 mph 1021mb - 48f
12:00pm 1ft 2s 25 29 mph 1021.1mb 50f 48f
11:50am  -   -  22 29 mph 1021.3mb - 48f
11:40am  -   -  22 29 mph 1021.3mb - 48f
11:30am  -   -  25 29 mph 1021.5mb - 48f
11:20am  -   -  25 34 mph 1021.5mb - 48f
11:10am  -   -  22 34 mph 1021.7mb - 48f
11:00am 1ft 2s 25 31 mph 1021.6mb 50f 47f
10:50am  -   -  22 31 mph 1022.1mb - 47f
10:40am  -   -  22 31 mph 1022.2mb - 47f
10:30am  -   -  20 25 mph 1022.6mb - 47f
10:20am  -   -  20 27 mph 1022.7mb - 47f
10:10am  -   -  20 27 mph 1022.6mb - 46f
10:00am 1ft 2s 20 29 mph 1022.4mb 50f 46f
9:50am  -   -  20 25 mph 1022.2mb - 46f
9:40am  -   -  20 27 mph 1022.1mb - 46f
9:30am  -   -  20 27 mph 1022.1mb - 46f
9:20am  -   -  20 27 mph 1022mb - 45f
9:10am  -   -  20 29 mph 1022.2mb - 45f
9:00am 1ft 2s 20 29 mph 1022.2mb 50f 45f
8:50am  -   -  20 27 mph 1022.2mb - 45f
8:40am  -   -  20 27 mph 1022mb - 44f
8:30am  -   -  18 25 mph 1021.8mb - 44f
8:20am  -   -  18 25 mph 1021.8mb - 44f
8:10am  -   -  18 25 mph 1021.6mb - 44f
8:00am  -   -  16 20 mph 1021.5mb 50f 44f
7:50am  -   -  16 20 mph 1021.3mb - 44f
7:40am  -   -  16 18 mph 1021.3mb - 44f
7:30am  -   -  16 22 mph 1021.3mb - 44f
7:20am  -   -  13 18 mph 1021.2mb - 44f
7:10am  -   -  13 16 mph 1021.1mb - 44f
7:00am  -   -  13 16 mph 1020.9mb 50f 44f
6:50am  -   -  13 18 mph 1020.8mb - 44f
6:40am  -   -  16 18 mph 1020.8mb - 44f
6:30am  -   -  16 20 mph 1020.6mb - 44f
6:20am  -   -  16 20 mph 1020.6mb - 44f
6:10am  -   -  16 18 mph 1020.5mb - 44f
6:00am  -   -  16 20 mph 1020.3mb 50f 45f
5:50am  -   -  16 22 mph 1020.2mb - 45f
5:40am  -   -  16 20 mph 1020mb - 45f
5:30am  -   -  18 22 mph 1019.9mb - 45f
5:20am  -   -  16 22 mph 1019.8mb - 45f
5:10am  -   -  18 22 mph 1019.8mb - 45f
5:00am 1ft 2s 18 25 mph 1019.7mb 50f 45f
4:50am  -   -  18 27 mph 1019.5mb - 45f
4:40am  -   -  18 25 mph 1019.3mb - 45f
4:30am  -   -  20 25 mph 1019.3mb - 45f
4:20am  -   -  18 22 mph 1019.1mb - 45f
4:10am  -   -  18 22 mph 1019mb - 45f
4:00am  -   -  18 22 mph 1018.9mb 50f 45f
3:50am  -   -  16 22 mph 1018.9mb - 45f
3:40am  -   -  18 22 mph 1018.8mb - 45f
3:30am  -   -  18 20 mph 1018.9mb - 45f
3:20am  -   -  18 22 mph 1019.2mb - 45f
3:10am  -   -  16 18 mph 1019.4mb - 45f
3:00am  -   -  16 20 mph 1019.4mb 50f 45f
2:50am  -   -  16 20 mph 1019.4mb - 45f
2:40am  -   -  18 22 mph 1019.5mb - 45f
2:30am  -   -  18 20 mph 1019.5mb - 45f
2:20am  -   -  18 25 mph 1019.4mb - 45f
2:10am  -   -  18 25 mph 1019.4mb - 45f
2:00am  -   -  16 20 mph 1019.4mb 50f 45f
1:50am  -   -  16 20 mph 1019.6mb - 45f
1:40am  -   -  16 20 mph 1019.6mb - 45f
1:30am  -   -  16 20 mph 1019.6mb - 45f
1:20am  -   -  16 22 mph 1019.5mb - 45f
1:10am  -   -  16 22 mph 1019.4mb - 45f
1:00am  -   -  18 22 mph 1019.4mb 50f 45f
12:50am  -   -  16 22 mph 1019.3mb - 45f
12:40am  -   -  16 22 mph 1019.2mb - 45f
12:30am  -   -  16 22 mph 1019.2mb - 45f
12:20am  -   -  16 22 mph 1019.2mb - 45f
12:10am  -   -  13 18 mph 1019.2mb - 45f
12:00am  -   -  13 20 mph 1019.3mb 50f 45f
Fri 12/02 11:50pm  -   -  13 20 mph 1019.4mb - 45f
11:40pm  -   -  13 18 mph 1019.3mb - 45f
11:30pm  -   -  16 20 mph 1019.4mb - 45f
11:20pm  -   -  13 18 mph 1019.3mb - 45f
11:10pm  -   -  16 18 mph 1019.3mb - 45f
11:00pm  -   -  13 18 mph 1019.3mb 50f 45f
10:50pm  -   -  16 20 mph 1019.2mb - 45f
10:40pm  -   -  16 20 mph 1019.2mb - 45f
10:30pm  -   -  16 18 mph 1019.2mb - 45f
10:20pm  -   -  16 20 mph 1019.2mb - 45f
10:10pm  -   -  16 20 mph 1019.1mb - 45f
10:00pm  -   -  13 20 mph 1018.9mb 50f 45f
9:50pm  -   -  16 20 mph 1018.9mb - 45f
9:40pm  -   -  16 20 mph 1018.9mb - 45f
9:30pm  -   -  13 20 mph 1018.9mb - 45f
9:20pm  -   -  16 20 mph 1019mb - 45f
9:10pm  -   -  16 20 mph 1019.1mb - 45f
9:00pm  -   -  13 20 mph 1019.1mb 51f 45f
8:50pm  -   -  16 20 mph 1018.9mb - 45f
8:40pm  -   -  16 22 mph 1018.7mb - 45f
8:30pm  -   -  18 25 mph 1018.8mb - 45f
8:20pm  -   -  18 22 mph 1018.8mb - 45f
8:10pm  -   -  20 27 mph 1018.7mb - 45f
8:00pm  -   -  18 25 mph 1018.7mb 51f 45f
7:50pm  -   -  18 22 mph 1018.9mb - 45f
7:40pm  -   -  13 18 mph 1018.9mb - 46f
7:30pm  -   -  16 22 mph 1019mb - 46f
7:20pm  -   -  16 20 mph 1018.5mb - 46f
7:10pm  -   -  18 22 mph 1018.4mb - 46f
7:00pm  -   -  25 29 mph 1018.1mb 51f 46f
6:50pm  -   -  20 27 mph 1018mb - 45f
6:30pm  -   -  18 20 mph 1017.6mb - 46f
6:20pm  -   -  13 20 mph 1017.5mb - 46f
6:10pm  -   -  13 18 mph 1017.4mb - 46f
5:50pm  -   -  16 22 mph 1017.5mb - 46f
4:50pm  -   -  20 27 mph 1016.9mb - 48f
4:20pm  -   -  22 27 mph 1016.3mb - 48f
4:10pm  -   -  20 27 mph 1016.3mb - 49f
4:00pm 1ft 2s 18 25 mph 1016.1mb 51f 49f
3:50pm  -   -  20 27 mph 1015.9mb - 49f
3:40pm  -   -  18 22 mph 1015.9mb - 49f
3:30pm  -   -  20 27 mph 1015.7mb - 49f
3:20pm  -   -  18 25 mph 1015.6mb - 50f
3:10pm  -   -  18 25 mph 1015.5mb - 50f
3:00pm 1ft 2s 20 27 mph 1015.4mb 51f 50f
2:50pm  -   -  18 25 mph 1015.5mb - 50f
2:40pm  -   -  20 29 mph 1015.5mb - 50f
2:30pm  -   -  22 29 mph 1015.4mb - 50f
2:20pm  -   -  22 29 mph 1015.4mb - 50f
2:10pm  -   -  22 29 mph 1015.4mb - 50f
2:00pm 1ft 2s 20 25 mph 1015.3mb 51f 50f
1:50pm  -   -  20 25 mph 1015.3mb - 50f
1:40pm  -   -  20 29 mph 1015.3mb - 50f
1:30pm  -   -  20 27 mph 1015.3mb - 49f
1:20pm  -   -  20 27 mph 1015.4mb - 49f
1:10pm  -   -  18 25 mph 1015.4mb - 49f
1:00pm  -   -  18 25 mph 1015.5mb 51f 49f
12:50pm  -   -  18 22 mph 1015.6mb - 49f
12:40pm  -   -  18 22 mph 1015.8mb - 49f
12:30pm  -   -  16 20 mph 1015.8mb - 49f
12:20pm  -   -  16 20 mph 1015.9mb - 49f
12:10pm  -   -  18 22 mph 1016mb - 49f
12:00pm  -   -  18 22 mph 1016mb 51f 49f
11:50am  -   -  18 22 mph 1016.3mb - 48f
11:40am  -   -  18 25 mph 1016.4mb - 48f
11:30am  -   -  20 29 mph 1016.5mb - 48f
11:20am  -   -  20 25 mph 1016.6mb - 48f
11:10am  -   -  22 27 mph 1016.6mb - 48f
11:00am 1ft 2s 20 27 mph 1016.8mb 51f 48f
10:50am  -   -  20 27 mph 1016.9mb - 48f
10:40am  -   -  20 22 mph 1017mb - 48f
10:30am  -   -  22 27 mph 1017.1mb - 48f
10:20am  -   -  20 27 mph 1017.2mb - 48f
10:10am  -   -  20 29 mph 1017.3mb - 48f
10:00am  -   -  22 29 mph 1017.4mb 51f 47f
9:50am  -   -  18 27 mph 1017.3mb - 47f
9:40am  -   -  18 25 mph 1017.5mb - 47f
9:30am  -   -  20 25 mph 1017.7mb - 47f
9:20am  -   -  20 27 mph 1017.6mb - 47f
9:10am  -   -  18 25 mph 1017.4mb - 47f
9:00am  -   -  16 22 mph 1017.3mb 51f 47f
8:50am  -   -  18 25 mph 1017.2mb - 47f
8:40am  -   -  18 25 mph 1017.2mb - 46f
8:30am  -   -  16 22 mph 1017.2mb - 46f
8:20am  -   -  16 20 mph 1017.2mb - 46f
8:10am  -   -  16 20 mph 1017.1mb - 46f
8:00am  -   -  16 18 mph 1017mb 51f 45f
7:50am  -   -  16 20 mph 1016.9mb - 45f
7:40am  -   -  13 18 mph 1016.8mb - 45f
7:30am  -   -  13 16 mph 1016.8mb - 45f
7:20am  -   -  13 18 mph 1016.7mb - 45f
7:10am  -   -  13 16 mph 1016.5mb - 45f
7:00am  -   -  11 16 mph 1016.4mb 51f 45f
6:50am  -   -  11 16 mph 1016.3mb - 45f
6:40am  -   -  13 18 mph 1016.2mb - 45f
6:30am  -   -  13 18 mph 1016.3mb - 45f
6:20am  -   -  11 18 mph 1016.1mb - 45f
6:10am  -   -  9 11 mph 1016.3mb - 45f
6:00am  -   -  11 16 mph 1016.1mb 50f 45f
5:50am  -   -  13 18 mph 1016mb - 45f
5:40am  -   -  13 18 mph 1016mb - 45f
5:30am  -   -  16 20 mph 1015.8mb - 46f
5:20am  -   -  16 20 mph 1015.7mb - 46f
5:10am  -   -  13 18 mph 1015.7mb - 46f
5:00am  -   -  13 20 mph 1015.7mb 51f 46f
4:50am  -   -  16 22 mph 1015.6mb - 46f
4:40am  -   -  18 22 mph 1015.5mb - 46f
4:30am  -   -  16 22 mph 1015.5mb - 45f
4:20am  -   -  13 18 mph 1015.5mb - 45f
4:10am  -   -  13 20 mph 1015.5mb - 46f
4:00am  -   -  13 20 mph 1015.3mb 51f 46f
3:50am  -   -  11 16 mph 1015.3mb - 45f
3:40am  -   -  11 13 mph 1015.4mb - 45f
3:30am  -   -  13 18 mph 1015.4mb - 46f
3:20am  -   -  13 20 mph 1015.2mb - 46f
3:10am  -   -  13 18 mph 1015.2mb - 46f
3:00am  -   -  13 18 mph 1015.4mb 51f 46f
2:50am  -   -  13 20 mph 1015.4mb - 46f
2:40am  -   -  18 22 mph 1015.4mb - 46f
2:30am  -   -  18 25 mph 1015.2mb - 46f
2:20am  -   -  16 20 mph 1015mb - 46f
2:10am  -   -  18 25 mph 1014.9mb - 46f
2:00am  -   -  18 27 mph 1014.6mb 51f 47f
1:50am  -   -  18 22 mph 1014.5mb - 47f
1:40am  -   -  11 18 mph 1014.4mb - 47f
1:30am  -   -  7 11 mph 1014.3mb - 47f
1:20am  -   -  4 9 mph 1014.3mb - 47f
1:10am  -   -  7 13 mph 1014.4mb - 47f
1:00am 0.3ft  -  9 13 mph 1014.1mb 51f 47f
12:50am  -   -  11 16 mph 1014mb - 47f
12:40am  -   -  7 11 mph 1014.2mb - 47f
12:30am  -   -  7 9 mph 1014.2mb - 47f
12:20am  -   -  9 11 mph 1014mb - 47f
12:10am  -   -  7 9 mph 1013.9mb - 47f
12:00am 0.3ft  -  9 11 mph 1013.9mb 51f 47f
Thu 12/01 11:50pm  -   -  9 11 mph 1013.8mb - 47f
11:40pm  -   -  7 11 mph 1013.8mb - 47f
11:30pm  -   -  9 13 mph 1013.6mb - 47f
11:20pm  -   -  11 16 mph 1013.4mb - 47f
11:10pm  -   -  13 18 mph 1013.4mb - 47f
11:00pm 0.3ft  -  13 16 mph 1013.6mb 51f 47f
10:50pm  -   -  9 11 mph 1013.9mb - 47f
10:40pm  -   -  9 13 mph 1013.8mb - 47f
10:30pm  -   -  9 13 mph 1014mb - 47f
10:20pm  -   -  13 16 mph 1013.9mb - 47f
10:10pm  -   -  16 22 mph 1013.5mb - 47f
10:00pm 0.3ft  -  18 22 mph 1013.3mb 51f 47f
9:50pm  -   -  11 18 mph 1013.2mb - 47f
9:40pm  -   -  11 16 mph 1012.9mb - 47f
9:30pm  -   -  11 16 mph 1012.7mb - 47f
9:20pm  -   -  11 16 mph 1012.7mb - 47f
9:10pm  -   -  16 20 mph 1012.7mb - 48f
9:00pm  -   -  16 20 mph 1012.5mb 51f 48f
8:50pm  -   -  18 27 mph 1012.3mb - 48f
8:30pm  -   -  20 27 mph 1012.3mb - 48f
8:20pm  -   -  18 25 mph 1012.1mb - 49f
8:10pm  -   -  18 22 mph 1012mb - 49f
8:00pm  -   -  18 20 mph 1011.9mb 51f 49f
7:50pm  -   -  16 22 mph 1012mb - 49f
7:40pm  -   -  16 22 mph 1011.9mb - 49f
7:30pm  -   -  16 22 mph 1011.9mb - 49f
7:20pm  -   -  16 20 mph 1011.7mb - 49f
7:10pm  -   -  16 20 mph 1011.6mb - 49f
7:00pm  -   -  16 20 mph 1011.6mb 51f 49f
6:50pm  -   -  16 22 mph 1011.5mb - 49f
6:40pm  -   -  13 18 mph 1011.4mb - 50f
6:30pm  -   -  13 20 mph 1011.3mb - 50f
6:20pm  -   -  16 20 mph 1011.2mb - 50f
6:10pm  -   -  16 18 mph 1011.1mb - 50f
6:00pm 1ft 2s 16 22 mph 1011mb 51f 50f
5:50pm  -   -  16 22 mph 1010.9mb - 51f
5:40pm  -   -  16 20 mph 1010.7mb - 51f
5:30pm  -   -  18 27 mph 1010.6mb - 51f
5:20pm  -   -  16 20 mph 1010.4mb - 51f
5:10pm  -   -  18 22 mph 1010mb - 51f
5:00pm 1ft 2s 20 25 mph 1009.7mb 51f 51f
4:50pm  -   -  18 22 mph 1009.4mb - 52f
4:40pm  -   -  18 22 mph 1009.3mb - 52f
4:30pm  -   -  16 22 mph 1009.2mb - 53f
4:20pm  -   -  18 25 mph 1009.1mb - 53f
4:10pm  -   -  16 22 mph 1009mb - 53f
4:00pm 0.7ft  -  13 18 mph 1008.9mb 51f 54f
3:50pm  -   -  16 20 mph 1008.7mb - 54f
3:40pm  -   -  18 20 mph 1008.5mb - 54f
3:30pm  -   -  16 22 mph 1008.3mb - 54f
3:20pm  -   -  16 22 mph 1008.2mb - 55f
3:10pm  -   -  16 22 mph 1008mb - 55f
3:00pm  -   -  18 27 mph 1007.7mb 51f 55f
2:50pm  -   -  13 20 mph 1007.7mb - 54f
2:40pm  -   -  11 18 mph 1007.6mb - 54f
2:30pm  -   -  16 22 mph 1007.6mb - 55f
2:20pm  -   -  16 22 mph 1007.6mb - 54f
2:10pm  -   -  18 27 mph 1007.5mb - 54f
2:00pm  -   -  16 20 mph 1007.5mb 51f 55f
1:50pm  -   -  18 27 mph 1007.6mb - 54f
12:50pm  -   -  16 22 mph 1007.6mb - 54f
12:40pm  -   -  18 27 mph 1007.5mb - 54f
12:30pm  -   -  16 22 mph 1007.6mb - 54f
12:20pm  -   -  18 25 mph 1007.6mb - 53f
12:10pm  -   -  18 25 mph 1007.8mb - 53f
12:00pm 1ft 2s 16 22 mph 1007.8mb 51f 53f
11:50am  -   -  18 22 mph 1007.8mb - 53f
11:40am  -   -  20 27 mph 1007.8mb - 53f
11:30am  -   -  18 25 mph 1007.9mb - 53f
11:20am  -   -  20 27 mph 1008mb - 53f
11:10am  -   -  20 27 mph 1008.1mb - 53f
11:00am 1ft 2s 20 29 mph 1008.1mb 51f 53f
10:50am  -   -  22 31 mph 1007.9mb - 53f
10:40am  -   -  25 34 mph 1008.1mb - 53f
10:30am  -   -  20 29 mph 1008.2mb - 53f
10:20am  -   -  20 27 mph 1008mb - 53f
10:10am  -   -  20 27 mph 1008.1mb - 53f
10:00am 1ft 2s 22 29 mph 1008.1mb 51f 53f
9:50am  -   -  22 29 mph 1008.1mb - 53f
9:40am  -   -  20 25 mph 1008mb - 53f
9:30am  -   -  20 27 mph 1007.9mb - 53f
9:20am  -   -  16 22 mph 1007.7mb - 53f
9:10am  -   -  20 25 mph 1007.7mb - 53f
9:00am 0.3ft  -  16 25 mph 1007.6mb 51f 53f
8:50am  -   -  13 18 mph 1007.5mb - 53f
8:40am  -   -  13 20 mph 1007.3mb - 54f
8:30am  -   -  9 16 mph 1007.1mb - 54f
8:20am  -   -  9 11 mph 1007mb - 53f
8:10am  -   -  7 9 mph 1006.8mb - 53f
8:00am 0.3ft  -  4 7 mph 1006.7mb 51f 53f
7:50am  -   -  4 9 mph 1006.5mb - 53f
7:40am  -   -  7 9 mph 1006.2mb - 53f
7:30am  -   -  9 11 mph 1006.2mb - 53f
7:20am  -   -  9 11 mph 1006.1mb - 53f
7:10am  -   -  11 13 mph 1005.9mb - 54f
7:00am 0.3ft  -  9 16 mph 1005.8mb 51f 54f
6:50am  -   -  11 16 mph 1005.7mb - 54f
6:40am  -   -  11 16 mph 1005.4mb - 54f
6:30am  -   -  11 13 mph 1005.5mb - 54f
6:20am  -   -  11 13 mph 1005.3mb - 54f
6:10am  -   -  11 13 mph 1005.1mb - 54f
6:00am  -   -  11 13 mph 1005mb 51f 54f
5:50am  -   -  9 13 mph 1004.9mb - 54f
5:40am  -   -  11 13 mph 1004.8mb - 54f
5:30am  -   -  11 13 mph 1004.5mb - 55f
5:20am  -   -  11 16 mph 1004.2mb - 55f
5:10am  -   -  11 16 mph 1004.2mb - 55f
5:00am  -   -  9 13 mph 1004.1mb 51f 55f
4:50am  -   -  11 16 mph 1003.9mb - 55f
4:40am  -   -  13 16 mph 1003.8mb - 56f
4:30am  -   -  13 18 mph 1003.7mb - 56f
4:20am  -   -  16 22 mph 1003.6mb - 56f
4:10am  -   -  18 25 mph 1003.4mb - 57f
4:00am 1ft 2s 22 27 mph 1003.1mb 51f 57f
3:50am  -   -  22 31 mph 1002.8mb - 58f
3:40am  -   -  22 29 mph 1002.7mb - 58f
3:30am  -   -  16 25 mph 1002.8mb - 58f
3:20am  -   -  11 18 mph 1002.7mb - 57f
3:10am  -   -  11 16 mph 1002.5mb - 57f
3:00am 0.7ft  -  11 16 mph 1002.2mb 51f 57f
2:50am  -   -  13 18 mph 1002.2mb - 57f
2:40am  -   -  13 20 mph 1002.3mb - 57f
2:30am  -   -  16 25 mph 1002.3mb - 58f
2:20am  -   -  18 25 mph 1002.1mb - 57f
2:10am  -   -  16 20 mph 1002mb - 57f
2:00am 1.3ft 2s 16 25 mph 1001.8mb 51f 57f